Retour au catalogue

STARLINK-3182

ActifCommunicationsVLEO
NORAD 51469·PAYLOAD·🇺🇸 United States

Lancé Feb 3, 2022 depuis Cape Canaveral Space Force Station

Loading…

Prochains Passages (prochaines 24 heures)

TLE

FraisSource: CelesTrak SupGP

Époque: Sep 14, 2026, 21:15 UTC

1 51469C 22010P   26257.88590278 -.00026091  00000+0 -74651-3 0  2571
2 51469  53.1572 141.6905 0001241  94.0256 187.5334 15.35410264    13

Suivez STARLINK-3182 en temps réel avec AllMySat

Download on the App Store